Location: Newark
(6.9530°N, 126.2160°E)
Time: 12:52:54
(UTC+00:00)

N. Korean satellite - Visible Passes

Search period start: 17 January 2020 00:00
Search period end: 27 January 2020 00:00
Orbit: 454 x 508 km, 97.2° (Epoch: 17 January)

Date Brightness Start Highest point End Pass type
(mag) Time Alt. Az. Time Alt. Az. Time Alt. Az.
17 Jan 9.8 20:22:30 10° ENE 20:24:46 16° E 20:27:04 10° SE visible
18 Jan 7.3 21:29:14 10° NNW 21:32:29 33° WNW 21:35:47 10° SW visible
19 Jan 6.6 21:03:28 10° NNE 21:07:03 85° E 21:10:43 10° S visible
20 Jan 8.7 20:38:26 10° NE 20:41:38 30° E 20:44:52 10° SSE visible
21 Jan 10.1 20:14:45 10° ENE 20:16:12 12° E 20:17:39 10° ESE visible
22 Jan 6.8 21:20:26 10° N 21:23:55 46° WNW 21:27:27 10° SSW visible
23 Jan 7.2 20:54:55 10° NNE 20:58:30 60° ESE 21:02:08 10° S visible
24 Jan 9.3 20:30:10 10° NE 20:33:04 22° E 20:35:58 10° SSE visible
26 Jan 6.5 21:11:43 10° N 21:15:20 67° W 21:19:01 10° SSW visible
